| time (UTC) | temp F | wind direction | speed MPH | gust MPH | rain 1hr in | rain 24hr in | rain mn in | humidity % | barometer mb |
| 20260503032348 | 37 | 318 | 2.0 | 3.0 | 0.00 | 0.03 | 0.03 | 78 | 1016.6 |
| 20260503031845 | 37 | 302 | 2.0 | 6.0 | 0.00 | 0.03 | 0.03 | 77 | 1016.5 |
| 20260503031343 | 36 | 291 | 1.0 | 1.0 | 0.00 | 0.03 | 0.03 | 78 | 1016.6 |
| 20260503030839 | 37 | 289 | 3.0 | 5.0 | 0.00 | 0.03 | 0.03 | 78 | 1016.8 |
| 20260503030336 | 37 | 277 | 2.0 | 2.0 | 0.00 | 0.03 | 0.03 | 78 | 1016.8 |
| 20260503025832 | 37 | 285 | 1.0 | 1.0 | 0.00 | 0.03 | 0.03 | 78 | 1016.6 |
| 20260503025330 | 37 | 284 | 1.0 | 1.0 | 0.00 | 0.03 | 0.03 | 78 | 1016.9 |
| 20260503024827 | 36 | 300 | 0.0 | 1.0 | 0.00 | 0.03 | 0.03 | 77 | 1016.5 |
| 20260503024323 | 37 | 334 | 0.0 | 0.0 | 0.00 | 0.03 | 0.03 | 77 | 1016.6 |
| 20260503023820 | 37 | 325 | 0.0 | 0.0 | 0.00 | 0.03 | 0.03 | 77 | 1016.4 |
| 20260503023317 | 37 | 310 | 1.0 | 1.0 | 0.00 | 0.03 | 0.03 | 77 | 1016.6 |
| 20260503022814 | 37 | 326 | 0.0 | 0.0 | 0.00 | 0.03 | 0.03 | 76 | 1016.5 |
| 20260503022309 | 37 | 275 | 1.0 | 1.0 | 0.00 | 0.03 | 0.03 | 76 | 1016.4 |
| 20260503021805 | 37 | 315 | 0.0 | 1.0 | 0.00 | 0.03 | 0.03 | 76 | 1016.4 |
| 20260503021302 | 37 | 320 | 1.0 | 1.0 | 0.00 | 0.03 | 0.03 | 76 | 1016.6 |
| 20260503020759 | 37 | 312 | 0.0 | 1.0 | 0.00 | 0.03 | 0.03 | 76 | 1016.6 |
| 20260503020257 | 38 | 288 | 1.0 | 2.0 | 0.00 | 0.03 | 0.03 | 76 | 1016.4 |
| 20260503015753 | 38 | 279 | 1.0 | 1.0 | 0.00 | 0.03 | 0.03 | 76 | 1016.7 |
| 20260503015250 | 38 | 302 | 0.0 | 1.0 | 0.00 | 0.03 | 0.03 | 76 | 1016.2 |
| 20260503014745 | 38 | 268 | 1.0 | 3.0 | 0.00 | 0.03 | 0.03 | 76 | 1016.4 |
| 20260503014244 | 38 | 227 | 2.0 | 2.0 | 0.00 | 0.03 | 0.03 | 76 | 1016.3 |
| 20260503013741 | 38 | 220 | 1.0 | 1.0 | 0.00 | 0.03 | 0.03 | 76 | 1016.2 |
| 20260503013238 | 38 | 220 | 1.0 | 1.0 | 0.00 | 0.03 | 0.03 | 76 | 1016.4 |
| 20260503012735 | 38 | 220 | 1.0 | 1.0 | 0.00 | 0.03 | 0.03 | 76 | 1016.3 |
| 20260503012233 | 38 | 220 | 1.0 | 1.0 | 0.00 | 0.03 | 0.03 | 76 | 1016.3 |
| 20260503011729 | 38 | 220 | 1.0 | 1.0 | 0.00 | 0.03 | 0.03 | 76 | 1016.4 |
| 20260503011226 | 38 | 220 | 1.0 | 1.0 | 0.00 | 0.03 | 0.03 | 76 | 1016.3 |
| 20260503010722 | 39 | 234 | 1.0 | 1.0 | 0.00 | 0.03 | 0.03 | 76 | 1016.3 |
| 20260503010219 | 39 | 234 | 1.0 | 1.0 | 0.00 | 0.03 | 0.03 | 76 | 1016.2 |
| 20260503005717 | 39 | 263 | 1.0 | 2.0 | 0.00 | 0.03 | 0.03 | 76 | 1016.2 |
| 20260503005214 | 39 | 256 | 1.0 | 2.0 | 0.00 | 0.03 | 0.03 | 75 | 1016.1 |
| 20260503004710 | 39 | 247 | 1.0 | 1.0 | 0.00 | 0.03 | 0.03 | 75 | 1016.1 |
| 20260503004209 | 39 | 305 | 1.0 | 1.0 | 0.00 | 0.03 | 0.03 | 74 | 1016.1 |
| 20260503003706 | 39 | 331 | 0.0 | 1.0 | 0.00 | 0.03 | 0.03 | 73 | 1016.3 |
| 20260503003203 | 40 | 328 | 1.0 | 2.0 | 0.00 | 0.03 | 0.03 | 73 | 1016.2 |
| 20260503002659 | 40 | 318 | 0.0 | 2.0 | 0.00 | 0.03 | 0.03 | 73 | 1016.0 |
| 20260503002156 | 40 | 292 | 1.0 | 2.0 | 0.00 | 0.03 | 0.03 | 73 | 1016.1 |
| 20260503001652 | 41 | 294 | 2.0 | 3.0 | 0.00 | 0.03 | 0.03 | 72 | 1016.0 |
| 20260503001149 | 41 | 328 | 0.0 | 1.0 | 0.00 | 0.03 | 0.03 | 70 | 1016.1 |
| 20260503000647 | 42 | 319 | 3.0 | 5.0 | 0.00 | 0.03 | 0.03 | 69 | 1016.1 |
| 20260503000143 | 42 | 277 | 2.0 | 7.0 | 0.00 | 0.03 | 0.03 | 68 | 1015.9 |
| 20260502235640 | 42 | 295 | 3.0 | 5.0 | 0.00 | 0.03 | 0.03 | 68 | 1016.0 |
| 20260502235139 | 43 | 266 | 4.0 | 6.0 | 0.00 | 0.03 | 0.03 | 67 | 1016.0 |
| 20260502234634 | 43 | 276 | 4.0 | 6.0 | 0.00 | 0.03 | 0.03 | 67 | 1016.0 |
| 20260502234131 | 44 | 299 | 2.0 | 6.0 | 0.00 | 0.03 | 0.03 | 66 | 1016.1 |
| 20260502233627 | 44 | 280 | 8.0 | 9.0 | 0.00 | 0.03 | 0.03 | 64 | 1016.0 |
| 20260502233124 | 44 | 321 | 3.0 | 6.0 | 0.00 | 0.03 | 0.03 | 66 | 1016.1 |
| 20260502232620 | 44 | 321 | 3.0 | 7.0 | 0.00 | 0.03 | 0.03 | 66 | 1016.0 |
| 20260502232118 | 44 | 334 | 5.0 | 11.0 | 0.00 | 0.03 | 0.03 | 66 | 1016.0 |
| 20260502231614 | 45 | 330 | 8.0 | 11.0 | 0.00 | 0.03 | 0.03 | 65 | 1016.1 |
| 20260502231112 | 45 | 306 | 6.0 | 10.0 | 0.00 | 0.03 | 0.03 | 64 | 1015.9 |
| 20260502230610 | 45 | 345 | 6.0 | 9.0 | 0.00 | 0.03 | 0.03 | 63 | 1016.2 |
| 20260502230109 | 45 | 327 | 5.0 | 8.0 | 0.00 | 0.03 | 0.03 | 64 | 1015.9 |
| 20260502225604 | 46 | 320 | 11.0 | 13.0 | 0.00 | 0.03 | 0.03 | 63 | 1015.8 |
| 20260502225101 | 46 | 298 | 7.0 | 9.0 | 0.00 | 0.03 | 0.03 | 63 | 1015.7 |
| 20260502224557 | 46 | 323 | 8.0 | 11.0 | 0.00 | 0.03 | 0.03 | 62 | 1015.9 |
| 20260502224054 | 47 | 309 | 5.0 | 7.0 | 0.00 | 0.03 | 0.03 | 60 | 1015.7 |
| 20260502223552 | 47 | 288 | 10.0 | 15.0 | 0.00 | 0.03 | 0.03 | 57 | 1016.0 |
| 20260502223050 | 47 | 302 | 6.0 | 10.0 | 0.00 | 0.03 | 0.03 | 59 | 1015.6 |
| 20260502222547 | 47 | 306 | 9.0 | 17.0 | 0.00 | 0.03 | 0.03 | 59 | 1015.6 |
| 20260502222043 | 46 | 330 | 7.0 | 16.0 | 0.00 | 0.03 | 0.03 | 59 | 1015.8 |
| 20260502221539 | 46 | 309 | 9.0 | 14.0 | 0.00 | 0.03 | 0.03 | 61 | 1015.8 |
| 20260502221037 | 46 | 318 | 7.0 | 13.0 | 0.00 | 0.03 | 0.03 | 62 | 1015.6 |
| 20260502220532 | 46 | 317 | 9.0 | 10.0 | 0.00 | 0.03 | 0.03 | 61 | 1015.6 |
| 20260502220029 | 47 | 283 | 10.0 | 15.0 | 0.00 | 0.03 | 0.03 | 60 | 1015.6 |
| 20260502215526 | 47 | 291 | 12.0 | 14.0 | 0.00 | 0.03 | 0.03 | 58 | 1015.3 |
| 20260502215023 | 48 | 319 | 9.0 | 13.0 | 0.00 | 0.03 | 0.03 | 58 | 1015.4 |
| 20260502214520 | 48 | 334 | 4.0 | 8.0 | 0.00 | 0.03 | 0.03 | 61 | 1015.4 |
| 20260502214018 | 48 | 305 | 6.0 | 8.0 | 0.00 | 0.03 | 0.03 | 58 | 1015.3 |
| 20260502213514 | 48 | 310 | 10.0 | 13.0 | 0.00 | 0.03 | 0.03 | 56 | 1015.4 |
| 20260502213012 | 47 | 318 | 9.0 | 11.0 | 0.00 | 0.03 | 0.03 | 59 | 1015.4 |
| 20260502212511 | 47 | 297 | 8.0 | 14.0 | 0.00 | 0.03 | 0.03 | 59 | 1015.4 |
| 20260502212008 | 47 | 346 | 4.0 | 9.0 | 0.00 | 0.03 | 0.03 | 59 | 1015.4 |
| 20260502211504 | 47 | 2 | 4.0 | 10.0 | 0.00 | 0.03 | 0.03 | 58 | 1015.6 |
| 20260502211001 | 47 | 3 | 8.0 | 10.0 | 0.00 | 0.03 | 0.03 | 59 | 1015.2 |
| 20260502210458 | 46 | 281 | 5.0 | 13.0 | 0.00 | 0.03 | 0.03 | 59 | 1015.2 |
| 20260502205955 | 46 | 359 | 5.0 | 7.0 | 0.00 | 0.03 | 0.03 | 60 | 1015.5 |
| 20260502205451 | 47 | 341 | 4.0 | 9.0 | 0.00 | 0.03 | 0.03 | 59 | 1015.6 |
| 20260502204948 | 47 | 326 | 7.0 | 13.0 | 0.00 | 0.03 | 0.03 | 58 | 1015.3 |
| 20260502204445 | 48 | 333 | 6.0 | 14.0 | 0.00 | 0.03 | 0.03 | 60 | 1015.4 |
| 20260502203943 | 47 | 340 | 7.0 | 8.0 | 0.00 | 0.03 | 0.03 | 59 | 1015.6 |
| 20260502203440 | 47 | 308 | 7.0 | 10.0 | 0.00 | 0.03 | 0.03 | 58 | 1015.5 |
| 20260502202936 | 47 | 355 | 7.0 | 13.0 | 0.00 | 0.03 | 0.03 | 57 | 1015.4 |
| 20260502202433 | 47 | 330 | 5.0 | 13.0 | 0.00 | 0.03 | 0.03 | 59 | 1015.5 |
| 20260502201931 | 47 | 306 | 6.0 | 11.0 | 0.00 | 0.03 | 0.03 | 59 | 1015.4 |
| 20260502201427 | 48 | 308 | 10.0 | 11.0 | 0.00 | 0.03 | 0.03 | 58 | 1015.4 |
| 20260502200924 | 47 | 305 | 5.0 | 9.0 | 0.00 | 0.03 | 0.03 | 59 | 1015.6 |
| 20260502200419 | 48 | 325 | 4.0 | 10.0 | 0.00 | 0.03 | 0.03 | 57 | 1015.6 |
| 20260502195917 | 48 | 344 | 7.0 | 9.0 | 0.00 | 0.03 | 0.03 | 57 | 1015.8 |
| 20260502195414 | 48 | 314 | 10.0 | 13.0 | 0.00 | 0.03 | 0.03 | 54 | 1015.8 |
| 20260502194910 | 48 | 316 | 7.0 | 14.0 | 0.00 | 0.03 | 0.03 | 56 | 1015.8 |
| 20260502194408 | 48 | 311 | 11.0 | 14.0 | 0.00 | 0.03 | 0.03 | 56 | 1016.1 |
| 20260502193903 | 48 | 305 | 5.0 | 8.0 | 0.00 | 0.03 | 0.03 | 57 | 1015.8 |
| 20260502193401 | 48 | 245 | 11.0 | 11.0 | 0.00 | 0.03 | 0.03 | 55 | 1015.9 |
| 20260502192856 | 48 | 322 | 9.0 | 11.0 | 0.00 | 0.03 | 0.03 | 56 | 1016.0 |
| 20260502192353 | 47 | 320 | 4.0 | 9.0 | 0.00 | 0.03 | 0.03 | 55 | 1016.1 |
| 20260502191850 | 47 | 347 | 10.0 | 14.0 | 0.00 | 0.03 | 0.03 | 55 | 1016.0 |
| 20260502191348 | 47 | 306 | 5.0 | 13.0 | 0.00 | 0.03 | 0.03 | 54 | 1016.0 |
| 20260502190845 | 48 | 317 | 7.0 | 11.0 | 0.00 | 0.03 | 0.03 | 57 | 1016.1 |
| 20260502190343 | 48 | 319 | 3.0 | 9.0 | 0.00 | 0.03 | 0.03 | 57 | 1016.2 |
| 20260502185838 | 47 | 294 | 7.0 | 14.0 | 0.00 | 0.03 | 0.03 | 55 | 1016.2 |
| 20260502185334 | 48 | 277 | 9.0 | 15.0 | 0.00 | 0.03 | 0.03 | 53 | 1016.2 |
| 20260502184832 | 48 | 326 | 9.0 | 15.0 | 0.00 | 0.03 | 0.03 | 55 | 1016.3 |
| 20260502184327 | 49 | 342 | 7.0 | 10.0 | 0.00 | 0.03 | 0.03 | 54 | 1016.1 |
| 20260502183824 | 48 | 307 | 7.0 | 11.0 | 0.00 | 0.03 | 0.03 | 55 | 1016.4 |
| 20260502183320 | 48 | 284 | 6.0 | 14.0 | 0.00 | 0.03 | 0.03 | 53 | 1016.0 |
| 20260502182815 | 48 | 307 | 10.0 | 16.0 | 0.00 | 0.03 | 0.03 | 52 | 1016.2 |
| 20260502182311 | 48 | 317 | 7.0 | 9.0 | 0.00 | 0.03 | 0.03 | 55 | 1016.2 |
| 20260502181807 | 47 | 320 | 5.0 | 9.0 | 0.00 | 0.03 | 0.03 | 57 | 1016.1 |
| 20260502181306 | 47 | 4 | 5.0 | 13.0 | 0.00 | 0.03 | 0.03 | 55 | 1016.2 |
| 20260502180804 | 48 | 281 | 5.0 | 9.0 | 0.00 | 0.03 | 0.03 | 56 | 1015.9 |
| 20260502180301 | 50 | 333 | 13.0 | 16.0 | 0.00 | 0.03 | 0.03 | 53 | 1016.1 |
| 20260502170214 | 48 | 294 | 11.0 | 15.0 | 0.00 | 0.03 | 0.03 | 57 | 1016.1 |
| 20260502164155 | 47 | 268 | 6.0 | 9.0 | 0.00 | 0.03 | 0.03 | 61 | 1016.2 |
| 20260502163650 | 48 | 336 | 11.0 | 16.0 | 0.00 | 0.03 | 0.03 | 62 | 1016.2 |
| 20260502163148 | 48 | 272 | 10.0 | 13.0 | 0.00 | 0.03 | 0.03 | 62 | 1016.1 |
| 20260502162644 | 47 | 334 | 7.0 | 11.0 | 0.00 | 0.03 | 0.03 | 63 | 1016.2 |
| 20260502162141 | 46 | 338 | 8.0 | 16.0 | 0.00 | 0.03 | 0.03 | 64 | 1016.2 |
| 20260502161639 | 47 | 282 | 9.0 | 13.0 | 0.00 | 0.03 | 0.03 | 63 | 1016.2 |
| 20260502161135 | 47 | 286 | 8.0 | 10.0 | 0.00 | 0.03 | 0.03 | 63 | 1016.4 |
| 20260502160633 | 46 | 292 | 4.0 | 13.0 | 0.00 | 0.03 | 0.03 | 66 | 1016.4 |
| 20260502160132 | 46 | 332 | 13.0 | 18.0 | 0.00 | 0.03 | 0.03 | 68 | 1016.1 |
| 20260502152046 | 46 | 271 | 9.0 | 15.0 | 0.00 | 0.03 | 0.03 | 62 | 1016.5 |
| 20260502151543 | 45 | 308 | 7.0 | 10.0 | 0.00 | 0.03 | 0.03 | 70 | 1016.3 |
| 20260502151040 | 46 | 327 | 10.0 | 16.0 | 0.00 | 0.03 | 0.03 | 70 | 1016.4 |
| 20260502150538 | 45 | 303 | 11.0 | 14.0 | 0.00 | 0.03 | 0.03 | 72 | 1016.3 |
| 20260502130422 | 43 | 330 | 6.0 | 10.0 | 0.00 | 0.03 | 0.03 | 83 | 1016.5 |
| 20260502123405 | 42 | 300 | 7.0 | 8.0 | 0.00 | 0.03 | 0.03 | 88 | 1016.4 |
| 20260502122902 | 42 | 282 | 7.0 | 8.0 | 0.00 | 0.03 | 0.03 | 88 | 1016.6 |
| 20260502122358 | 42 | 311 | 11.0 | 13.0 | 0.00 | 0.03 | 0.03 | 88 | 1016.5 |
| 20260502121856 | 43 | 297 | 11.0 | 13.0 | 0.00 | 0.03 | 0.03 | 88 | 1016.3 |
| 20260502121353 | 43 | 269 | 6.0 | 11.0 | 0.00 | 0.03 | 0.03 | 89 | 1016.3 |
| 20260502120845 | 42 | 307 | 5.0 | 9.0 | 0.00 | 0.03 | 0.03 | 89 | 1016.5 |
| 20260502120341 | 43 | 317 | 7.0 | 9.0 | 0.00 | 0.03 | 0.03 | 88 | 1016.4 |
| 20260502115838 | 43 | 291 | 6.0 | 14.0 | 0.00 | 0.03 | 0.03 | 88 | 1016.3 |
| 20260502115335 | 43 | 288 | 5.0 | 10.0 | 0.00 | 0.03 | 0.03 | 89 | 1016.6 |
| 20260502114832 | 42 | 302 | 6.0 | 10.0 | 0.00 | 0.03 | 0.03 | 89 | 1016.5 |
| 20260502114329 | 41 | 286 | 5.0 | 11.0 | 0.00 | 0.03 | 0.03 | 90 | 1016.4 |
| 20260502113826 | 41 | 312 | 6.0 | 8.0 | 0.00 | 0.03 | 0.03 | 91 | 1016.4 |
| 20260502113323 | 41 | 316 | 5.0 | 10.0 | 0.00 | 0.03 | 0.03 | 91 | 1016.4 |
| 20260502112822 | 41 | 318 | 6.0 | 6.0 | 0.00 | 0.03 | 0.03 | 91 | 1016.3 |
| 20260502112318 | 41 | 310 | 6.0 | 10.0 | 0.00 | 0.03 | 0.03 | 91 | 1016.4 |
| 20260502111816 | 41 | 329 | 6.0 | 8.0 | 0.00 | 0.03 | 0.03 | 92 | 1016.3 |
| 20260502111313 | 41 | 316 | 6.0 | 10.0 | 0.00 | 0.03 | 0.03 | 92 | 1016.2 |
| 20260502110811 | 41 | 286 | 3.0 | 6.0 | 0.00 | 0.03 | 0.03 | 92 | 1016.2 |
| 20260502110309 | 40 | 308 | 7.0 | 9.0 | 0.00 | 0.03 | 0.03 | 92 | 1016.1 |
| 20260502105806 | 40 | 310 | 6.0 | 7.0 | 0.00 | 0.03 | 0.03 | 92 | 1016.2 |
| 20260502105305 | 40 | 282 | 6.0 | 9.0 | 0.00 | 0.03 | 0.03 | 92 | 1016.3 |
| 20260502104800 | 40 | 282 | 5.0 | 7.0 | 0.00 | 0.03 | 0.03 | 92 | 1016.1 |
| 20260502104257 | 40 | 284 | 2.0 | 8.0 | 0.00 | 0.03 | 0.03 | 92 | 1016.0 |
| 20260502103755 | 40 | 298 | 6.0 | 7.0 | 0.00 | 0.03 | 0.03 | 92 | 1016.0 |
| 20260502103252 | 40 | 256 | 5.0 | 7.0 | 0.00 | 0.03 | 0.03 | 92 | 1016.0 |
| 20260502102749 | 40 | 290 | 4.0 | 6.0 | 0.00 | 0.03 | 0.03 | 92 | 1015.8 |
| 20260502102245 | 40 | 262 | 5.0 | 6.0 | 0.00 | 0.03 | 0.03 | 92 | 1015.9 |
| 20260502101744 | 40 | 294 | 3.0 | 6.0 | 0.00 | 0.03 | 0.03 | 92 | 1015.8 |
| 20260502101241 | 40 | 291 | 5.0 | 6.0 | 0.00 | 0.03 | 0.03 | 92 | 1015.6 |
| 20260502100739 | 40 | 325 | 8.0 | 10.0 | 0.00 | 0.03 | 0.03 | 92 | 1015.8 |
| 20260502100238 | 40 | 286 | 3.0 | 3.0 | 0.00 | 0.03 | 0.03 | 93 | 1015.7 |
| 20260502091212 | 40 | 311 | 5.0 | 7.0 | 0.00 | 0.03 | 0.03 | 93 | 1015.4 |
| 20260502090709 | 40 | 304 | 3.0 | 5.0 | 0.00 | 0.03 | 0.03 | 93 | 1015.2 |
| 20260502090205 | 40 | 312 | 4.0 | 5.0 | 0.00 | 0.03 | 0.03 | 93 | 1014.9 |
| 20260502071102 | 40 | 287 | 5.0 | 7.0 | 0.00 | 0.03 | 0.03 | 95 | 1015.1 |
| 20260502070600 | 40 | 328 | 3.0 | 3.0 | 0.00 | 0.03 | 0.03 | 95 | 1014.8 |
| 20260502070057 | 40 | 287 | 2.0 | 5.0 | 0.00 | 0.03 | 0.03 | 95 | 1014.9 |
| 20260502065555 | 40 | 313 | 3.0 | 7.0 | 0.00 | 0.03 | 0.03 | 95 | 1015.0 |
| 20260502065053 | 41 | 303 | 3.0 | 3.0 | 0.00 | 0.03 | 0.03 | 95 | 1015.1 |
| 20260502064551 | 41 | 314 | 4.0 | 5.0 | 0.00 | 0.03 | 0.03 | 95 | 1014.9 |
| 20260502064048 | 41 | 302 | 5.0 | 8.0 | 0.00 | 0.03 | 0.03 | 95 | 1015.1 |
| 20260502063545 | 41 | 302 | 5.0 | 8.0 | 0.00 | 0.03 | 0.03 | 95 | 1015.1 |
| 20260502063043 | 41 | 326 | 4.0 | 8.0 | 0.00 | 0.03 | 0.03 | 95 | 1015.1 |
| 20260502062539 | 41 | 317 | 4.0 | 10.0 | 0.07 | 0.03 | 0.03 | 95 | 1015.3 |
| 20260502062032 | 41 | 293 | 3.0 | 8.0 | 0.07 | 0.03 | 0.03 | 95 | 1015.1 |
| 20260502061530 | 41 | 288 | 6.0 | 8.0 | 0.05 | 0.02 | 0.02 | 95 | 1015.1 |
| 20260502061026 | 41 | 298 | 3.0 | 3.0 | 0.00 | 0.01 | 0.01 | 95 | 1015.0 |
| 20260502060521 | 41 | 319 | 4.0 | 5.0 | 0.00 | 0.01 | 0.01 | 95 | 1014.8 |
| 20260502060018 | 41 | 322 | 3.0 | 3.0 | 0.00 | 0.01 | 0.01 | 95 | 1015.1 |
| 20260502055516 | 42 | 288 | 4.0 | 5.0 | 0.00 | 0.01 | 0.01 | 95 | 1015.1 |
| 20260502055015 | 42 | 288 | 4.0 | 5.0 | 0.00 | 0.01 | 0.01 | 95 | 1015.0 |
| 20260502054513 | 42 | 311 | 4.0 | 6.0 | 0.00 | 0.01 | 0.01 | 95 | 1015.4 |
| 20260502054009 | 42 | 257 | 4.0 | 7.0 | 0.00 | 0.01 | 0.01 | 95 | 1015.4 |
| 20260502053506 | 42 | 298 | 5.0 | 6.0 | 0.00 | 0.01 | 0.01 | 95 | 1015.3 |
| 20260502053004 | 42 | 303 | 3.0 | 6.0 | 0.00 | 0.01 | 0.01 | 95 | 1015.3 |
| 20260502052502 | 42 | 308 | 2.0 | 3.0 | 0.00 | 0.01 | 0.01 | 95 | 1015.2 |
| 20260502052000 | 42 | 337 | 2.0 | 5.0 | 0.00 | 0.01 | 0.01 | 94 | 1015.3 |
| 20260502051458 | 42 | 312 | 3.0 | 5.0 | 0.00 | 0.01 | 0.01 | 94 | 1015.1 |
| 20260502050955 | 43 | 318 | 6.0 | 7.0 | 0.00 | 0.01 | 0.01 | 94 | 1015.2 |
| 20260502050451 | 43 | 319 | 4.0 | 5.0 | 0.00 | 0.01 | 0.01 | 94 | 1015.1 |
| 20260502045949 | 43 | 318 | 2.0 | 3.0 | 0.00 | 0.01 | 0.01 | 94 | 1015.2 |
| 20260502045445 | 43 | 343 | 4.0 | 5.0 | 0.00 | 0.01 | 0.01 | 94 | 1015.3 |
| 20260502044942 | 43 | 334 | 2.0 | 3.0 | 0.00 | 0.01 | 0.01 | 94 | 1015.3 |
| 20260502044438 | 43 | 335 | 1.0 | 3.0 | 0.00 | 0.01 | 0.01 | 94 | 1015.1 |
| 20260502043935 | 43 | 318 | 2.0 | 3.0 | 0.00 | 0.01 | 0.01 | 94 | 1015.4 |
| 20260502043433 | 44 | 336 | 2.0 | 3.0 | 0.00 | 0.01 | 0.01 | 94 | 1015.1 |
| 20260502042932 | 44 | 330 | 3.0 | 3.0 | 0.00 | 0.01 | 0.01 | 93 | 1015.1 |
| 20260502042430 | 44 | 331 | 2.0 | 3.0 | 0.00 | 0.01 | 0.01 | 93 | 1015.0 |
| 20260502041926 | 44 | 320 | 2.0 | 5.0 | 0.00 | 0.01 | 0.01 | 93 | 1015.1 |
| 20260502041425 | 44 | 305 | 2.0 | 5.0 | 0.07 | 0.01 | 0.01 | 93 | 1015.3 |
| 20260502040921 | 44 | 323 | 1.0 | 2.0 | 0.07 | 0.01 | 0.01 | 93 | 1015.2 |
| 20260502040418 | 44 | 334 | 1.0 | 2.0 | 0.05 | 0.00 | 0.00 | 93 | 1014.8 |
| 20260502035914 | 44 | 325 | 2.0 | 2.0 | 0.05 | 0.03 | 0.03 | 93 | 1015.2 |
| 20260502035411 | 45 | 315 | 1.0 | 1.0 | 0.00 | 0.02 | 0.02 | 93 | 1015.2 |
| 20260502034908 | 45 | 311 | 1.0 | 1.0 | 0.00 | 0.02 | 0.02 | 92 | 1015.1 |
| 20260502034407 | 45 | 307 | 0.0 | 1.0 | 0.07 | 0.02 | 0.02 | 92 | 1015.2 |
| 20260502033905 | 45 | 279 | 1.0 | 2.0 | 0.07 | 0.02 | 0.02 | 92 | 1015.0 |
| 20260502033402 | 45 | 323 | 0.0 | 0.0 | 0.00 | 0.01 | 0.01 | 92 | 1014.9 |
| 20260502032859 | 45 | 318 | 0.0 | 1.0 | 0.00 | 0.01 | 0.01 | 92 | 1014.9 |